Location: L�Ave Maria
(50.7161°N, 1.5911°E)
Time: 23:47:35
(UTC+00:00)

USA 215 - Pass Details

Date: 10 July 2020
Orbit: 1102 x 1106 km, 123.0° (Epoch: 08 August)

Event Time Altitude Azimuth Distance (km) Brightness Sun altitude
Rises 20:51:04 0° 62° (ENE) 3,926 6.0 -6.3°
Reaches altitude 10° 20:54:17 10° 77° (ENE) 2,964 5.2 -6.6°
Maximum altitude 20:59:03 21° 125° (SE) 2,240 4.3 -7.1°
Drops below altitude 10° 21:03:48 10° 172° (S) 2,952 5.0 -7.6°
Sets 21:06:59 0° 188° (S) 3,905 5.7 -7.9°
